ATLAS 5 CENTAUR DEB, 44691

Orbit data source: Space-Track

ATLAS 5 CENTAUR DEB, 44691 is space debris in HEO originally from a launch on Wed, 17 Oct 2018 UTC launched from the Air Force Eastern Test Range (AFETR). Debris objects in space refer to the collection of defunct objects orbiting the Earth. Examples of debris include non-operational satellites, rocket bodies, and fragments generated from explosions, collisions, or faulty payload assembly.

Loading next visibility...
Identifier
44691, 2018-079BD
Orbit
HEO
Country
Flag of USUS
Related business
Flag of USUnited Launch Alliance/Lockheed Martin (US)
Manufacturer
ULA Decatur
Mission
Spacecraft
Bus & Motor
Unknown
Mass
Unknown
Launch date (UTC)
2018-10-17 (8 years ago)
Launch vehicle
Unknown
Launch site
Air Force Eastern Test Range (AFETR)
Object type
Payload
Rocket body
Debris
Shape & HBR
Unknown shape, 1.1 m
Radar Cross Section
Medium (>0.1 m² and <1 m²)

Expand to show TLE details & history
Last TLE update: 1 day ago

TLE from 1 day ago
0 ATLAS 5 CENTAUR DEB
1 44691U 18079BD  26235.98804762 -.00000162  00000-0  00000-0 0  9991
2 44691  13.2771  50.6566 4444275 278.3714  35.1118  1.76822573 45387
Epoch: 2026-08-23T23:42Z
TLE epoch observation values (Epoch: 2026-08-23T23:42:47.314Z)
Latitude
0.00002°
Longitude
82.77283°
Altitude
15,381.133 km
Speed
4.779 km/s
True Right ascension
03h 22m 59s
True Declination
0° 00' 00"
Sunlit
Object was in daylight at epoch
Visualization orbit readout
Latitude
Unknown
Longitude
Unknown
Altitude
Unknown
Speed
Unknown
Apparent Right ascension
Unknown
Apparent Declination
Unknown
Sunlit
N/A
Visualization observer readout
Local Sidereal Time
17:56:36
Azimuth
Unknown
Elevation
Unknown
Doppler factor
Unknown
Orbital elements
Apogee altitude
35,350.617 km
Perigee altitude
9,672.061 km
Semi-major axis
28,889.476 km
Eccentricity
0.44443
Inclination
13.2771°
RAAN
50.6566°
Arg. of periapsis
278.3714°
True anomaly
81.56714°
Mean anomaly
35.1118°
Eccentric anomaly
56.29539°
Mean motion
0.44201 °/min
Orbital period
814.46 mins
BSTAR
0
Loading maneuver chart data...
Computing Atmospheric mass density...

Documentation

Showing up to 5 results
|